Wichita Dwight D. Eisenhower National Airport Airport (ICT)

 

Airport Diagram
Current Weather/Forecast (VFR Conditions)
METAR KICT 241553Z 04006KT 10SM FEW110 26/17 A3001 RMK AO2 SLP151 T02610172
TAF KICT 241123Z 2412/2512 VRB03KT P6SM FEW250 FM250900 36008KT P6SM FEW250

All Charts
General
Chart Name Download
AIRPORT DIAGRAM
TAKEOFF MINIMUMS
ALTERNATE MINIMUMS
HOT SPOT

Approaches
Chart Name Download
ILS OR LOC RWY 01L
ILS OR LOC RWY 01R
ILS OR LOC RWY 19L
ILS OR LOC RWY 19R
ILS RWY 01L (SA CAT I)
ILS RWY 01L (CAT II)
RNAV (RNP) Z RWY 01L
RNAV (RNP) Z RWY 14
RNAV (RNP) Z RWY 19L
RNAV (RNP) Z RWY 19R
RNAV (GPS) RWY 01R
RNAV (GPS) RWY 32
RNAV (GPS) Y RWY 01L
RNAV (GPS) Y RWY 14
RNAV (GPS) Y RWY 19L
RNAV (GPS) Y RWY 19R
VOR RWY 14
NDB RWY 01R